,,,PA_Meas_PMT16A,,PR_Meas_QMR101_102,,RH_Meas_QMH101,,SR_Meas_QMS101,,TA_Meas_QMH101,,GenWind,,GenWind,
date,time,status,PA,status,PR,status,RH,status,SR,status,TA,status,DirAvg,status,SpdAvg,
2012-11-19, 00:00:04,VALID,1010.88,VALID,0,VALID,104,VALID,0,VALID,24.3371,VALID,160,VALID,1.4875,
2012-11-19, 00:01:04,VALID,1010.89,VALID,0,VALID,104,VALID,0,VALID,24.2963,VALID,139,VALID,1.11016,
2012-11-19, 00:02:04,VALID,1010.86,VALID,0,VALID,104,VALID,0,VALID,24.2981,VALID,130,VALID,1.63477,
2012-11-19, 00:03:04,VALID,1010.85,VALID,0,VALID,104,VALID,0,VALID,24.2768,VALID,153,VALID,1.28945,
2012-11-19, 00:04:04,VALID,1010.81,VALID,0,VALID,104,VALID,0,VALID,24.2786,VALID,139,VALID,1.28164,
2012-11-19, 00:05:04,VALID,1010.8,VALID,0,VALID,104,VALID,0,VALID,24.2786,VALID,147,VALID,1.53906,
2012-11-19, 00:06:04,VALID,1010.79,VALID,0,VALID,104,VALID,0,VALID,24.2591,VALID,146,VALID,1.79414,
2012-11-19, 00:07:04,VALID,1010.76,VALID,0,VALID,104,VALID,0,VALID,24.2378,VALID,128,VALID,1.28984,
2012-11-19, 00:08:04,VALID,1010.73,VALID,0,VALID,104,VALID,0,VALID,24.2183,VALID,114,VALID,1.0625,
2012-11-19, 00:09:04,VALID,1010.72,VALID,0,VALID,104,VALID,0,VALID,24.2396,VALID,147,VALID,1.11602,
2012-11-19, 00:10:04,VALID,1010.72,VALID,0,VALID,104,VALID,0,VALID,24.2202,VALID,145,VALID,0.85625,
2012-11-19, 00:11:04,VALID,1010.7,VALID,0,VALID,104,VALID,0,VALID,24.2007,VALID,172,VALID,1.21211,
2012-11-19, 00:12:04,VALID,1010.69,VALID,0,VALID,104,VALID,0,VALID,24.2007,VALID,155,VALID,1.39648,
2012-11-19, 00:13:04,VALID,1010.64,VALID,0,VALID,104,VALID,0,VALID,24.1793,VALID,130,VALID,1.55469,
2012-11-19, 00:14:04,VALID,1010.64,VALID,0,VALID,104,VALID,0,VALID,24.1812,VALID,126,VALID,1.21328,
2012-11-19, 00:15:04,VALID,1010.6,VALID,0,VALID,104,VALID,0,VALID,24.1812,VALID,132,VALID,1.5875,
2012-11-19, 00:16:04,VALID,1010.61,VALID,0,VALID,104,VALID,0,VALID,24.1617,VALID,148,VALID,1.27813,
2012-11-19, 00:17:04,VALID,1010.61,VALID,0,VALID,104,VALID,0,VALID,24.1404,VALID,136,VALID,1.91875,
2012-11-19, 00:18:04,VALID,1010.61,VALID,0,VALID,104,VALID,0.112112,VALID,24.1617,VALID,136,VALID,1.04648,
2012-11-19, 00:19:04,VALID,1010.6,VALID,0,VALID,104,VALID,0,VALID,24.1404,VALID,122,VALID,1.14258,
2012-11-19, 00:20:04,VALID,1010.62,VALID,0,VALID,104,VALID,0.112112,VALID,24.1404,VALID,134,VALID,1.02461,
2012-11-19, 00:21:04,VALID,1010.57,VALID,0,VALID,104,VALID,0,VALID,24.1599,VALID,127,VALID,0.914453,
2012-11-19, 00:22:04,VALID,1010.57,VALID,0,VALID,104,VALID,0.112112,VALID,24.1209,VALID,138,VALID,0.920703,
2012-11-19, 00:23:04,VALID,1010.53,VALID,0,VALID,104,VALID,0,VALID,24.1422,VALID,151,VALID,2.04023,
2012-11-19, 00:24:04,VALID,1010.51,VALID,0,VALID,104,VALID,0,VALID,24.0819,VALID,126,VALID,2.00742,
2012-11-19, 00:25:04,VALID,1010.48,VALID,0,VALID,104,VALID,0,VALID,24.1032,VALID,114,VALID,1.41992,
2012-11-19, 00:26:04,VALID,1010.46,VALID,0,VALID,104,VALID,0.112112,VALID,24.0819,VALID,132,VALID,2.42852,
2012-11-19, 00:27:04,VALID,1010.42,VALID,0,VALID,104,VALID,0.112112,VALID,24.0624,VALID,107,VALID,1.475,
2012-11-19, 00:28:04,VALID,1010.43,VALID,0,VALID,104,VALID,0,VALID,24.0235,VALID,139,VALID,1.62148,
2012-11-19, 00:29:04,VALID,1010.39,VALID,0,VALID,104,VALID,0,VALID,24.0448,VALID,129,VALID,1.49844,
2012-11-19, 00:30:04,VALID,1010.38,VALID,0,VALID,104,VALID,0.112112,VALID,24.004,VALID,127,VALID,1.77891,
2012-11-19, 00:31:04,VALID,1010.34,VALID,0,VALID,104,VALID,0.112112,VALID,24.004,VALID,156,VALID,1.37227,
2012-11-19, 00:32:04,VALID,1010.32,VALID,0,VALID,104,VALID,0.112112,VALID,23.9863,VALID,130,VALID,1.17188,
2012-11-19, 00:33:04,VALID,1010.29,VALID,0,VALID,104,VALID,0,VALID,23.9863,VALID,126,VALID,1.07852,
2012-11-19, 00:34:04,VALID,1010.26,VALID,0,VALID,104,VALID,0.112112,VALID,23.965,VALID,120,VALID,1.36133,
2012-11-19, 00:35:04,VALID,1010.27,VALID,0,VALID,104,VALID,0,VALID,23.965,VALID,135,VALID,1.38672,
2012-11-19, 00:36:04,VALID,1010.27,VALID,0,VALID,104,VALID,0,VALID,23.9668,VALID,174,VALID,0.560547,
2012-11-19, 00:37:04,VALID,1010.26,VALID,0,VALID,104,VALID,0,VALID,23.9668,VALID,179,VALID,0.598828,
2012-11-19, 00:38:04,VALID,1010.29,VALID,0,VALID,104,VALID,0.112112,VALID,23.9473,VALID,147,VALID,1.36094,
2012-11-19, 00:39:04,VALID,1010.28,VALID,0,VALID,104,VALID,0,VALID,23.926,VALID,118,VALID,1.32109,
2012-11-19, 00:40:04,VALID,1010.28,VALID,0,VALID,104,VALID,0,VALID,23.9473,VALID,140,VALID,0.896484,
2012-11-19, 00:41:04,VALID,1010.29,VALID,0,VALID,104,VALID,0,VALID,23.9065,VALID,140,VALID,0.649219,
2012-11-19, 00:42:04,VALID,1010.3,VALID,0,VALID,104,VALID,0,VALID,23.9473,VALID,124,VALID,0.851563,
2012-11-19, 00:43:04,VALID,1010.26,VALID,0,VALID,104,VALID,0.112112,VALID,23.9473,VALID,120,VALID,0.686719,
2012-11-19, 00:44:04,VALID,1010.26,VALID,0,VALID,104,VALID,0.112112,VALID,23.9863,VALID,150,VALID,0.9625,
2012-11-19, 00:45:04,VALID,1010.24,VALID,0,VALID,104,VALID,0,VALID,23.9455,VALID,146,VALID,0.835938,
2012-11-19, 00:46:04,VALID,1010.21,VALID,0,VALID,104,VALID,0,VALID,23.9473,VALID,134,VALID,0.744141,
2012-11-19, 00:47:04,VALID,1010.18,VALID,0,VALID,104,VALID,0,VALID,23.9473,VALID,150,VALID,0.941406,
2012-11-19, 00:48:04,VALID,1010.18,VALID,0,VALID,104,VALID,0.112112,VALID,23.9455,VALID,127,VALID,0.616016,
2012-11-19, 00:49:04,VALID,1010.17,VALID,0,VALID,104,VALID,0,VALID,23.9473,VALID,130,VALID,0.851563,
2012-11-19, 00:50:04,VALID,1010.15,VALID,0,VALID,104,VALID,0,VALID,23.9065,VALID,153,VALID,0.555469,
2012-11-19, 00:51:04,VALID,1010.12,VALID,0,VALID,104,VALID,0.112112,VALID,23.9473,VALID,153,VALID,0.341406,
2012-11-19, 00:52:04,VALID,1010.11,VALID,0,VALID,104,VALID,0,VALID,23.9473,VALID,169,VALID,0.783984,
2012-11-19, 00:53:04,VALID,1010.06,VALID,0,VALID,104,VALID,0,VALID,23.9278,VALID,159,VALID,0.589844,
2012-11-19, 00:54:04,VALID,1010.03,VALID,0,VALID,104,VALID,0,VALID,23.9473,VALID,178,VALID,0.523047,
2012-11-19, 00:55:04,VALID,1010.03,VALID,0,VALID,104,VALID,0,VALID,23.9455,VALID,157,VALID,0.660937,
2012-11-19, 00:56:04,VALID,1009.99,VALID,0,VALID,104,VALID,0,VALID,23.926,VALID,145,VALID,0.483203,
2012-11-19, 00:57:04,VALID,1009.94,VALID,0,VALID,104,VALID,0,VALID,23.926,VALID,146,VALID,0.461719,
2012-11-19, 00:58:04,VALID,1009.9,VALID,0,VALID,104,VALID,0,VALID,23.9473,VALID,149,VALID,0.577734,
2012-11-19, 00:59:04,VALID,1009.91,VALID,0,VALID,104,VALID,0.112112,VALID,23.9455,VALID,149,VALID,0.510938,
2012-11-19, 01:00:04,VALID,1009.89,VALID,0,VALID,104,VALID,0.112112,VALID,23.9863,VALID,150,VALID,0.735547,
2012-11-19, 01:01:04,VALID,1009.87,VALID,0,VALID,104,VALID,0.112112,VALID,23.9455,VALID,150,VALID,0.616016,
2012-11-19, 01:02:04,VALID,1009.87,VALID,0,VALID,104,VALID,0,VALID,23.9455,VALID,150,VALID,0.571094,
2012-11-19, 01:03:04,VALID,1009.82,VALID,0,VALID,104,VALID,0.112112,VALID,23.9455,VALID,150,VALID,0.310937,
2012-11-19, 01:04:04,VALID,1009.82,VALID,0,VALID,104,VALID,0,VALID,23.9668,VALID,150,VALID,0.287109,
2012-11-19, 01:05:04,VALID,1009.81,VALID,0,VALID,104,VALID,0,VALID,23.9668,VALID,149,VALID,0.733594,
2012-11-19, 01:06:04,VALID,1009.79,VALID,0,VALID,104,VALID,0,VALID,23.926,VALID,150,VALID,0.378906,
2012-11-19, 01:07:04,VALID,1009.77,VALID,0,VALID,104,VALID,0,VALID,23.9455,VALID,175,VALID,0.816016,
2012-11-19, 01:08:04,VALID,1009.79,VALID,0,VALID,104,VALID,0.112112,VALID,23.926,VALID,175,VALID,0.404297,
2012-11-19, 01:09:04,VALID,1009.77,VALID,0,VALID,104,VALID,0.112112,VALID,23.9455,VALID,175,VALID,0.244922,
2012-11-19, 01:10:04,VALID,1009.75,VALID,0,VALID,104,VALID,0,VALID,23.926,VALID,170,VALID,0.709375,
2012-11-19, 01:11:04,VALID,1009.76,VALID,0,VALID,104,VALID,0,VALID,23.9455,VALID,168,VALID,0.845703,
2012-11-19, 01:12:04,VALID,1009.78,VALID,0,VALID,104,VALID,0.112112,VALID,23.926,VALID,157,VALID,0.663281,
2012-11-19, 01:13:04,VALID,1009.75,VALID,0,VALID,104,VALID,0.112112,VALID,23.965,VALID,149,VALID,0.451562,
2012-11-19, 01:14:04,VALID,1009.73,VALID,0,VALID,104,VALID,0.112112,VALID,23.965,VALID,149,VALID,0.419141,
2012-11-19, 01:15:04,VALID,1009.72,VALID,0,VALID,104,VALID,0.112112,VALID,23.965,VALID,149,VALID,0.239453,
2012-11-19, 01:16:04,VALID,1009.67,VALID,0,VALID,104,VALID,0,VALID,23.965,VALID,150,VALID,0.445313,
2012-11-19, 01:17:04,VALID,1009.67,VALID,0,VALID,104,VALID,0.112112,VALID,23.965,VALID,149,VALID,0.115625,
2012-11-19, 01:18:04,VALID,1009.65,VALID,0,VALID,104,VALID,0.112112,VALID,23.965,VALID,149,VALID,0,
2012-11-19, 01:19:04,VALID,1009.63,VALID,0,VALID,104,VALID,0,VALID,23.9668,VALID,149,VALID,0.00078125,
2012-11-19, 01:20:04,VALID,1009.6,VALID,0,VALID,104,VALID,0,VALID,23.9455,VALID,149,VALID,0.744141,
2012-11-19, 01:21:04,VALID,1009.6,VALID,0,VALID,104,VALID,0,VALID,23.9668,VALID,150,VALID,0.553125,
2012-11-19, 01:22:04,VALID,1009.59,VALID,0,VALID,104,VALID,0,VALID,23.965,VALID,165,VALID,0.734375,
2012-11-19, 01:23:04,VALID,1009.57,VALID,0,VALID,104,VALID,0,VALID,23.926,VALID,160,VALID,0.294141,
2012-11-19, 01:24:04,VALID,1009.56,VALID,0,VALID,104,VALID,0,VALID,23.9668,VALID,159,VALID,0.223438,
2012-11-19, 01:25:04,VALID,1009.53,VALID,0,VALID,104,VALID,0,VALID,23.9455,VALID,159,VALID,0.240234,
2012-11-19, 01:26:04,VALID,1009.5,VALID,0,VALID,104,VALID,0,VALID,23.9668,VALID,160,VALID,0.167969,
2012-11-19, 01:27:04,VALID,1009.49,VALID,0,VALID,104,VALID,0.112112,VALID,23.9455,VALID,160,VALID,0.428516,
2012-11-19, 01:28:04,VALID,1009.47,VALID,0,VALID,104,VALID,0,VALID,23.9473,VALID,171,VALID,0.873438,
2012-11-19, 01:29:04,VALID,1009.45,VALID,0,VALID,104,VALID,0,VALID,23.9473,VALID,171,VALID,0.546484,
2012-11-19, 01:30:04,VALID,1009.42,VALID,0,VALID,104,VALID,0.112112,VALID,23.9065,VALID,171,VALID,0.417578,
2012-11-19, 01:31:04,VALID,1009.4,VALID,0,VALID,104,VALID,0,VALID,23.926,VALID,171,VALID,0.180469,
2012-11-19, 01:32:04,VALID,1009.39,VALID,0,VALID,104,VALID,0,VALID,23.9473,VALID,171,VALID,0.496094,
2012-11-19, 01:33:04,VALID,1009.36,VALID,0,VALID,104,VALID,0.112112,VALID,23.9473,VALID,167,VALID,0.461719,
2012-11-19, 01:34:04,VALID,1009.34,VALID,0,VALID,104,VALID,0,VALID,23.926,VALID,117,VALID,0.6625,
2012-11-19, 01:35:04,VALID,1009.33,VALID,0,VALID,104,VALID,0,VALID,23.9473,VALID,110,VALID,0.780859,
2012-11-19, 01:36:04,VALID,1009.32,VALID,0,VALID,104,VALID,0,VALID,23.9065,VALID,112,VALID,0.580469,
2012-11-19, 01:37:04,VALID,1009.3,VALID,0,VALID,104,VALID,0.112112,VALID,23.9065,VALID,112,VALID,0.584375,
2012-11-19, 01:38:04,VALID,1009.3,VALID,0,VALID,104,VALID,0,VALID,23.9278,VALID,112,VALID,0.901953,
2012-11-19, 01:39:04,VALID,1009.29,VALID,0,VALID,104,VALID,0,VALID,23.9278,VALID,114,VALID,0.968359,
2012-11-19, 01:40:04,VALID,1009.26,VALID,0,VALID,104,VALID,0,VALID,23.9065,VALID,109,VALID,0.733203,
2012-11-19, 01:41:04,VALID,1009.25,VALID,0,VALID,104,VALID,0,VALID,23.9084,VALID,109,VALID,0.566406,
2012-11-19, 01:42:04,VALID,1009.22,VALID,0,VALID,104,VALID,0.112112,VALID,23.8871,VALID,94,VALID,0.776563,
2012-11-19, 01:43:04,VALID,1009.2,VALID,0,VALID,104,VALID,0,VALID,23.8694,VALID,97,VALID,0.963672,
2012-11-19, 01:44:04,VALID,1009.2,VALID,0,VALID,104,VALID,0,VALID,23.8889,VALID,98,VALID,0.743359,
2012-11-19, 01:45:04,VALID,1009.17,VALID,0,VALID,104,VALID,0,VALID,23.8676,VALID,97,VALID,0.667188,
2012-11-19, 01:46:04,VALID,1009.18,VALID,0,VALID,104,VALID,0.112112,VALID,23.9278,VALID,69,VALID,1.15195,
2012-11-19, 01:47:04,VALID,1009.14,VALID,0,VALID,104,VALID,0.112112,VALID,23.8676,VALID,70,VALID,0.321094,
2012-11-19, 01:48:04,VALID,1009.15,VALID,0,VALID,104,VALID,0,VALID,23.8694,VALID,70,VALID,0.219922,
2012-11-19, 01:49:04,VALID,1009.11,VALID,0,VALID,104,VALID,0,VALID,23.9084,VALID,84,VALID,0.869141,
2012-11-19, 01:50:04,VALID,1009.12,VALID,0,VALID,104,VALID,0.112112,VALID,23.8481,VALID,80,VALID,0.697266,
2012-11-19, 01:51:04,VALID,1009.11,VALID,0,VALID,104,VALID,0.112112,VALID,23.8286,VALID,80,VALID,0.395312,
2012-11-19, 01:52:04,VALID,1009.11,VALID,0,VALID,104,VALID,0.112112,VALID,23.8091,VALID,80,VALID,0.260938,
2012-11-19, 01:53:04,VALID,1009.14,VALID,0,VALID,104,VALID,0.112112,VALID,23.8304,VALID,80,VALID,0.265625,
2012-11-19, 01:54:04,VALID,1009.12,VALID,0,VALID,104,VALID,0,VALID,23.8286,VALID,80,VALID,0.408594,
2012-11-19, 01:55:04,VALID,1009.12,VALID,0,VALID,104,VALID,0,VALID,23.8499,VALID,80,VALID,0.00117188,
2012-11-19, 01:56:04,VALID,1009.14,VALID,0,VALID,104,VALID,0,VALID,23.8286,VALID,80,VALID,0.376172,
2012-11-19, 01:57:04,VALID,1009.12,VALID,0,VALID,104,VALID,0.112112,VALID,23.8304,VALID,80,VALID,0.365625,
2012-11-19, 01:58:04,VALID,1009.1,VALID,0,VALID,104,VALID,0,VALID,23.8109,VALID,80,VALID,0.570313,
2012-11-19, 01:59:04,VALID,1009.13,VALID,0,VALID,104,VALID,0.112112,VALID,23.8109,VALID,82,VALID,0.685938,
2012-11-19, 02:00:04,VALID,1009.11,VALID,0,VALID,104,VALID,0,VALID,23.8109,VALID,84,VALID,0.599219,
2012-11-19, 02:01:04,VALID,1009.13,VALID,0,VALID,104,VALID,0,VALID,23.772,VALID,98,VALID,0.877344,
2012-11-19, 02:02:04,VALID,1009.12,VALID,0,VALID,104,VALID,0,VALID,23.7914,VALID,95,VALID,1.17188,
2012-11-19, 02:03:04,VALID,1009.13,VALID,0,VALID,104,VALID,0,VALID,23.7507,VALID,108,VALID,1.2668,
2012-11-19, 02:04:04,VALID,1009.11,VALID,0,VALID,104,VALID,0,VALID,23.7525,VALID,93,VALID,0.873828,
2012-11-19, 02:05:04,VALID,1009.14,VALID,0,VALID,104,VALID,0,VALID,23.7507,VALID,97,VALID,0.856641,
2012-11-19, 02:06:04,VALID,1009.12,VALID,0,VALID,104,VALID,0,VALID,23.7117,VALID,110,VALID,0.755469,
2012-11-19, 02:07:04,VALID,1009.1,VALID,0,VALID,104,VALID,0,VALID,23.733,VALID,100,VALID,1.10547,
2012-11-19, 02:08:04,VALID,1009.1,VALID,0,VALID,104,VALID,0,VALID,23.7117,VALID,78,VALID,1.22305,
2012-11-19, 02:09:04,VALID,1009.1,VALID,0,VALID,104,VALID,0,VALID,23.6922,VALID,108,VALID,1.11523,
2012-11-19, 02:10:04,VALID,1009.1,VALID,0,VALID,104,VALID,0,VALID,23.6922,VALID,83,VALID,1.63789,
2012-11-19, 02:11:04,VALID,1009.12,VALID,0,VALID,104,VALID,0,VALID,23.694,VALID,82,VALID,0.889063,
2012-11-19, 02:12:04,VALID,1009.08,VALID,0,VALID,104,VALID,0,VALID,23.6745,VALID,84,VALID,1.14141,
2012-11-19, 02:13:04,VALID,1009.05,VALID,0,VALID,104,VALID,0,VALID,23.6532,VALID,93,VALID,0.869922,
2012-11-19, 02:14:04,VALID,1009.05,VALID,0,VALID,104,VALID,0.112112,VALID,23.6727,VALID,84,VALID,0.595703,
2012-11-19, 02:15:04,VALID,1009.01,VALID,0,VALID,104,VALID,0,VALID,23.655,VALID,69,VALID,0.814453,
2012-11-19, 02:16:04,VALID,1009.01,VALID,0,VALID,104,VALID,0,VALID,23.6338,VALID,68,VALID,0.639453,
2012-11-19, 02:17:04,VALID,1009,VALID,0,VALID,104,VALID,0,VALID,23.6356,VALID,67,VALID,1.05547,
2012-11-19, 02:18:04,VALID,1008.99,VALID,0,VALID,104,VALID,0,VALID,23.6356,VALID,67,VALID,1.03398,
2012-11-19, 02:19:04,VALID,1008.97,VALID,0,VALID,104,VALID,0,VALID,23.5948,VALID,80,VALID,0.988672,
2012-11-19, 02:20:04,VALID,1008.99,VALID,0,VALID,104,VALID,0.112112,VALID,23.5948,VALID,78,VALID,0.775391,
2012-11-19, 02:21:04,VALID,1008.99,VALID,0,VALID,104,VALID,0.112112,VALID,23.5966,VALID,79,VALID,0.460547,
2012-11-19, 02:22:04,VALID,1008.99,VALID,0,VALID,104,VALID,0,VALID,23.5558,VALID,79,VALID,0.889453,
2012-11-19, 02:23:04,VALID,1009.03,VALID,0,VALID,104,VALID,0,VALID,23.5558,VALID,79,VALID,0.891016,
2012-11-19, 02:24:04,VALID,1009.06,VALID,0,VALID,104,VALID,0,VALID,23.5558,VALID,82,VALID,0.769531,
2012-11-19, 02:25:04,VALID,1009.07,VALID,0,VALID,104,VALID,0,VALID,23.5363,VALID,70,VALID,1.64688,
2012-11-19, 02:26:04,VALID,1009.09,VALID,0,VALID,104,VALID,0.112112,VALID,23.5576,VALID,85,VALID,1.49453,
2012-11-19, 02:27:04,VALID,1009.09,VALID,0,VALID,104,VALID,0.112112,VALID,23.5771,VALID,79,VALID,0.637891,
2012-11-19, 02:28:04,VALID,1009.1,VALID,0,VALID,104,VALID,0.112112,VALID,23.5771,VALID,93,VALID,1.4418,
2012-11-19, 02:29:04,VALID,1009.12,VALID,0,VALID,104,VALID,0,VALID,23.5363,VALID,91,VALID,1.36836,
2012-11-19, 02:30:04,VALID,1009.13,VALID,0,VALID,104,VALID,0,VALID,23.5381,VALID,97,VALID,1.29336,
2012-11-19, 02:31:04,VALID,1009.13,VALID,0,VALID,104,VALID,0,VALID,23.5169,VALID,97,VALID,1.26328,
2012-11-19, 02:32:04,VALID,1009.12,VALID,0,VALID,104,VALID,0,VALID,23.5363,VALID,91,VALID,0.732422,
2012-11-19, 02:33:04,VALID,1009.16,VALID,0,VALID,104,VALID,0,VALID,23.5576,VALID,103,VALID,0.938672,
2012-11-19, 02:34:04,VALID,1009.14,VALID,0,VALID,104,VALID,0,VALID,23.5169,VALID,93,VALID,0.883984,
2012-11-19, 02:35:04,VALID,1009.12,VALID,0,VALID,104,VALID,0,VALID,23.5381,VALID,94,VALID,0.598047,
2012-11-19, 02:36:04,VALID,1009.11,VALID,0,VALID,104,VALID,0,VALID,23.4974,VALID,106,VALID,0.469531,
2012-11-19, 02:37:04,VALID,1009.11,VALID,0,VALID,104,VALID,0.112112,VALID,23.4974,VALID,119,VALID,0.882813,
2012-11-19, 02:38:04,VALID,1009.1,VALID,0,VALID,104,VALID,0,VALID,23.5186,VALID,116,VALID,0.6875,
2012-11-19, 02:39:04,VALID,1009.09,VALID,0,VALID,104,VALID,0,VALID,23.5169,VALID,114,VALID,0.619922,
2012-11-19, 02:40:04,VALID,1009.09,VALID,0,VALID,104,VALID,0,VALID,23.5186,VALID,97,VALID,0.833594,
2012-11-19, 02:41:04,VALID,1009.05,VALID,0,VALID,104,VALID,0.112112,VALID,23.4974,VALID,96,VALID,0.909766,
2012-11-19, 02:42:04,VALID,1009.04,VALID,0,VALID,104,VALID,0,VALID,23.4992,VALID,92,VALID,0.526563,
2012-11-19, 02:43:04,VALID,1008.99,VALID,0,VALID,104,VALID,0,VALID,23.4584,VALID,82,VALID,0.716016,
2012-11-19, 02:44:04,VALID,1008.96,VALID,0,VALID,104,VALID,0.112112,VALID,23.4992,VALID,82,VALID,0.697266,
2012-11-19, 02:45:04,VALID,1008.95,VALID,0,VALID,104,VALID,0,VALID,23.4602,VALID,78,VALID,0.602344,
2012-11-19, 02:46:04,VALID,1008.93,VALID,0,VALID,104,VALID,0,VALID,23.4602,VALID,78,VALID,0.891797,
2012-11-19, 02:47:04,VALID,1008.95,VALID,0,VALID,104,VALID,0,VALID,23.4407,VALID,78,VALID,0.424609,
2012-11-19, 02:48:04,VALID,1008.9,VALID,0,VALID,104,VALID,0,VALID,23.4602,VALID,89,VALID,0.929688,
2012-11-19, 02:49:04,VALID,1008.95,VALID,0,VALID,104,VALID,0,VALID,23.4194,VALID,89,VALID,0.444531,
2012-11-19, 02:50:04,VALID,1008.93,VALID,0,VALID,104,VALID,0.112112,VALID,23.4407,VALID,89,VALID,0.634375,
2012-11-19, 02:51:04,VALID,1008.93,VALID,0,VALID,104,VALID,0,VALID,23.4212,VALID,99,VALID,0.824219,
2012-11-19, 02:52:04,VALID,1008.93,VALID,0,VALID,104,VALID,0,VALID,23.4,VALID,91,VALID,1.02266,
2012-11-19, 02:53:04,VALID,1008.95,VALID,0,VALID,104,VALID,0,VALID,23.4,VALID,83,VALID,0.560547,
2012-11-19, 02:54:04,VALID,1008.93,VALID,0,VALID,104,VALID,0,VALID,23.4017,VALID,84,VALID,0.731641,
2012-11-19, 02:55:04,VALID,1008.95,VALID,0,VALID,104,VALID,0,VALID,23.4,VALID,87,VALID,0.763672,
2012-11-19, 02:56:04,VALID,1009,VALID,0,VALID,104,VALID,0,VALID,23.4,VALID,99,VALID,1.00039,
2012-11-19, 02:57:04,VALID,1008.97,VALID,0,VALID,104,VALID,0,VALID,23.4017,VALID,99,VALID,0.338281,
2012-11-19, 02:58:04,VALID,1009,VALID,0,VALID,104,VALID,0,VALID,23.4017,VALID,98,VALID,0.688672,
2012-11-19, 02:59:04,VALID,1009.01,VALID,0,VALID,104,VALID,0,VALID,23.3823,VALID,98,VALID,0.379687,
2012-11-19, 03:00:04,VALID,1009.02,VALID,0,VALID,104,VALID,0,VALID,23.3823,VALID,101,VALID,1.0125,
2012-11-19, 03:01:04,VALID,1008.99,VALID,0,VALID,104,VALID,0,VALID,23.3628,VALID,109,VALID,0.997266,
2012-11-19, 03:02:04,VALID,1009.03,VALID,0,VALID,104,VALID,0,VALID,23.3823,VALID,113,VALID,0.594531,
2012-11-19, 03:03:04,VALID,1009,VALID,0,VALID,104,VALID,0,VALID,23.3823,VALID,113,VALID,0.111328,
2012-11-19, 03:04:04,VALID,1009,VALID,0,VALID,104,VALID,0,VALID,23.3628,VALID,113,VALID,0.367188,
2012-11-19, 03:05:04,VALID,1008.99,VALID,0,VALID,104,VALID,0,VALID,23.3628,VALID,113,VALID,0.333594,
2012-11-19, 03:06:04,VALID,1009.01,VALID,0,VALID,104,VALID,0,VALID,23.3433,VALID,113,VALID,0.120703,
2012-11-19, 03:07:04,VALID,1008.98,VALID,0,VALID,104,VALID,0,VALID,23.3238,VALID,113,VALID,0,
2012-11-19, 03:08:04,VALID,1009,VALID,0,VALID,104,VALID,0,VALID,23.2831,VALID,113,VALID,0.183594,
2012-11-19, 03:09:04,VALID,1009,VALID,0,VALID,104,VALID,0,VALID,23.3026,VALID,113,VALID,0.176953,
2012-11-19, 03:10:04,VALID,1009,VALID,0,VALID,104,VALID,0,VALID,23.2636,VALID,113,VALID,0.00820312,
2012-11-19, 03:11:04,VALID,1009.01,VALID,0,VALID,104,VALID,0,VALID,23.2848,VALID,101,VALID,0.330078,
2012-11-19, 03:12:04,VALID,1009.01,VALID,0,VALID,104,VALID,0,VALID,23.3043,VALID,76,VALID,0.253125,
2012-11-19, 03:13:04,VALID,1009.02,VALID,0,VALID,104,VALID,0,VALID,23.2848,VALID,78,VALID,0,
2012-11-19, 03:14:04,VALID,1009.03,VALID,0,VALID,104,VALID,0,VALID,23.2441,VALID,78,VALID,0,
2012-11-19, 03:15:04,VALID,1009.01,VALID,0,VALID,104,VALID,0,VALID,23.2848,VALID,77,VALID,0.331641,
2012-11-19, 03:16:04,VALID,1008.99,VALID,0,VALID,104,VALID,0,VALID,23.2441,VALID,77,VALID,0.224609,
2012-11-19, 03:17:04,VALID,1008.99,VALID,0,VALID,104,VALID,0,VALID,23.2654,VALID,77,VALID,0.0398437,
2012-11-19, 03:18:04,VALID,1008.99,VALID,0,VALID,104,VALID,0,VALID,23.2654,VALID,77,VALID,0.233984,
2012-11-19, 03:19:04,VALID,1008.98,VALID,0,VALID,104,VALID,0,VALID,23.2441,VALID,77,VALID,0,
2012-11-19, 03:20:04,VALID,1008.99,VALID,0,VALID,104,VALID,0,VALID,23.2654,VALID,77,VALID,0,
2012-11-19, 03:21:04,VALID,1008.97,VALID,0,VALID,104,VALID,0,VALID,23.2459,VALID,78,VALID,0,
2012-11-19, 03:22:04,VALID,1008.97,VALID,0,VALID,104,VALID,0,VALID,23.2459,VALID,78,VALID,0,
2012-11-19, 03:23:04,VALID,1008.95,VALID,0,VALID,104,VALID,0,VALID,23.2459,VALID,78,VALID,0.0128906,
2012-11-19, 03:24:04,VALID,1008.95,VALID,0,VALID,104,VALID,0,VALID,23.2246,VALID,77,VALID,0,
2012-11-19, 03:25:04,VALID,1008.97,VALID,0,VALID,104,VALID,0,VALID,23.2459,VALID,77,VALID,0,
2012-11-19, 03:26:04,VALID,1008.96,VALID,0,VALID,104,VALID,0,VALID,23.2246,VALID,77,VALID,0,
2012-11-19, 03:27:04,VALID,1008.98,VALID,0,VALID,104,VALID,0,VALID,23.2264,VALID,77,VALID,0.2875,
2012-11-19, 03:28:04,VALID,1008.97,VALID,0,VALID,104,VALID,0,VALID,23.2069,VALID,76,VALID,0.273438,
2012-11-19, 03:29:04,VALID,1008.98,VALID,0,VALID,104,VALID,0,VALID,23.1662,VALID,77,VALID,0.416016,
2012-11-19, 03:30:04,VALID,1009.01,VALID,0,VALID,104,VALID,0,VALID,23.1662,VALID,77,VALID,0.483984,
2012-11-19, 03:31:04,VALID,1009.03,VALID,0,VALID,104,VALID,0,VALID,23.1662,VALID,60,VALID,0.646875,
2012-11-19, 03:32:04,VALID,1009.04,VALID,0,VALID,104,VALID,0,VALID,23.1679,VALID,60,VALID,0.462109,
2012-11-19, 03:33:04,VALID,1009.05,VALID,0,VALID,104,VALID,0,VALID,23.1679,VALID,59,VALID,0.350781,
2012-11-19, 03:34:04,VALID,1009.05,VALID,0,VALID,104,VALID,0,VALID,23.1272,VALID,59,VALID,0.24375,
2012-11-19, 03:35:04,VALID,1009.07,VALID,0,VALID,104,VALID,0,VALID,23.1485,VALID,59,VALID,0.180078,
2012-11-19, 03:36:04,VALID,1009.04,VALID,0,VALID,104,VALID,0,VALID,23.129,VALID,60,VALID,0.280469,
2012-11-19, 03:37:04,VALID,1009.03,VALID,0,VALID,104,VALID,0,VALID,23.1485,VALID,59,VALID,0.224609,
2012-11-19, 03:38:04,VALID,1009.02,VALID,0,VALID,104,VALID,0,VALID,23.129,VALID,59,VALID,0.114844,
2012-11-19, 03:39:04,VALID,1009.04,VALID,0,VALID,104,VALID,0,VALID,23.1077,VALID,59,VALID,0,
2012-11-19, 03:40:04,VALID,1009.03,VALID,0,VALID,104,VALID,0,VALID,23.129,VALID,60,VALID,0,
2012-11-19, 03:41:04,VALID,1009.02,VALID,0,VALID,104,VALID,0,VALID,23.09,VALID,59,VALID,0,
2012-11-19, 03:42:04,VALID,1009,VALID,0,VALID,104,VALID,0,VALID,23.09,VALID,59,VALID,0,
2012-11-19, 03:43:04,VALID,1008.98,VALID,0,VALID,104,VALID,0,VALID,23.0705,VALID,60,VALID,0,
2012-11-19, 03:44:04,VALID,1009,VALID,0,VALID,104,VALID,0,VALID,23.0705,VALID,60,VALID,0,
2012-11-19, 03:45:04,VALID,1008.98,VALID,0,VALID,104,VALID,0,VALID,23.0493,VALID,60,VALID,0,
2012-11-19, 03:46:04,VALID,1008.97,VALID,0,VALID,104,VALID,0,VALID,23.0511,VALID,59,VALID,0,
2012-11-19, 03:47:04,VALID,1008.97,VALID,0,VALID,104,VALID,0,VALID,23.0705,VALID,59,VALID,0,
2012-11-19, 03:48:04,VALID,1008.95,VALID,0,VALID,104,VALID,0,VALID,23.0705,VALID,59,VALID,0.00195313,
2012-11-19, 03:49:04,VALID,1008.93,VALID,0,VALID,104,VALID,0,VALID,23.0705,VALID,59,VALID,0.0578125,
2012-11-19, 03:50:04,VALID,1008.93,VALID,0,VALID,104,VALID,0,VALID,23.09,VALID,60,VALID,0.167969,
2012-11-19, 03:51:04,VALID,1008.95,VALID,0,VALID,104,VALID,0,VALID,23.0883,VALID,60,VALID,0.263281,
2012-11-19, 03:52:04,VALID,1008.94,VALID,0,VALID,104,VALID,0,VALID,23.1095,VALID,59,VALID,0,
2012-11-19, 03:53:04,VALID,1008.96,VALID,0,VALID,104,VALID,0,VALID,23.0688,VALID,60,VALID,0,